Tracking 29892 objects as of 21-Nov-2024
HD Live streaming from Space Station
objects crossing your sky now

ARIANE 3 DEB (SYLDA)

Track ARIANE 3 DEB (SYLDA) now!
10-day predictions


NORAD ID: 15680
Int'l Code: 1985-035D
Perigee: 294.8 km
Apogee: 2,180.7 km
Inclination: 6.8 °
Period: 110.1 minutes
Semi major axis: 7608 km
RCS: 7.2153 m2 (large)
Launch date: May 8, 1985
Source: France (FR)
Launch site: FRENCH GUIANA (FRGUI)

Note: This is SATELLITE DEBRIS
Your satellite tracking list
Your tracking list is empty




NASA's NSSDC Master Catalog

Two Line Element Set (TLE):
1 15680U 85035D   24325.58489184  .00459343  34492-5  11055-1 0  9992
2 15680   6.7680  74.7555 1239291  37.4997 330.5502 13.08063958777549
Source of the keplerian elements: AFSPC